Back to catalog

CZ-4 DEB

AliveSSO
NORAD 26132·DEBRIS·🇨🇳 China

Launched Oct 14, 1999 from Taiyuan Satellite Launch Center

Loading…

Next Passes (next 24 hours)

TLE

FreshSource: Space-Track

Epoch: Sep 14, 2026, 05:01 UTC

1 26132U 99057U   26257.20912675  .00002866  00000-0  60880-3 0  9995
2 26132  98.6412 354.9599 0098981   5.3655  24.2889 14.56917527380864

Track CZ-4 DEB in real time with AllMySat

Download on the App Store